Temperature
16 16 16 17 14 12 13 14 15 16 16 17 17 16 15 15 15 15 14 14 14 14 14 14 14 14 14 14 14 14 14 14 15 15 15 14 14 14 14 14 14 14 14 14 14 14 14 14 14
16 16 16 16 12 13 13 13 14 15 16 17 16 16 14 14 14 14 14 14 14 14 14 14 14 14 14 14 14 14 14 14 14 14 14 14 14 14 14 14 14 14 14 14 14 14 14 14 14
15 16 16 12 12 12 14 14 14 15 16 16 15 15 14 14 14 14 14 14 14 14 13 13 13 13 13 14 14 14 14 14 14 14 14 14 14 14 14 14 14 14 14 14 14 14 14 14 14
15 15 14 11 12 12 13 14 14 15 16 16 15 13 13 13 13 13 14 13 13 13 13 13 13 13 13 13 13 14 14 14 14 14 14 14 14 14 14 14 14 14 14 14 14 14 14 13 13
15 14 11 11 11 12 12 14 14 14 14 15 14 12 12 13 13 13 13 13 13 13 13 12 13 13 13 13 13 13 13 13 13 14 14 14 14 14 14 14 14 14 13 13 13 13 13 13 13
14 11 10 11 11 12 12 14 14 13 13 14 13 12 12 12 12 12 12 12 13 13 12 12 12 12 12 12 13 13 13 13 13 13 13 13 13 13 13 13 13 13 13 13 13 13 13 13 13
12 9 10 10 11 12 12 13 13 12 12 12 13 11 11 11 12 12 12 12 12 12 12 12 12 12 12 12 12 12 13 13 13 13 13 13 13 13 13 13 13 13 13 13 13 13 12 12 12
13 9 10 10 11 11 12 13 13 12 12 12 12 10 10 11 11 11 11 11 11 11 11 11 11 12 12 12 12 12 12 12 13 13 13 13 13 13 13 13 13 12 12 12 12 12 12 12 12
12 9 9 10 11 11 12 11 12 12 12 11 11 11 11 11 11 11 11 11 11 11 11 11 11 11 11 12 12 12 12 12 12 12 12 12 12 12 12 12 12 12 12 12 12 12 12 12 12
11 8 9 10 10 10 11 11 11 11 10 10 10 10 11 11 11 11 10 10 10 10 10 10 10 10 11 11 11 11 11 12 12 12 12 12 12 12 12 12 12 12 12 12 12 12 12 12 11
9 8 9 10 10 10 10 10 10 10 8 8 9 9 10 10 10 10 10 10 10 10 10 10 10 10 10 10 11 11 11 11 11 11 11 12 12 12 12 11 11 11 11 11 11 11 11 11 11
8 8 9 9 10 10 9 9 8 8 8 9 9 10 9 9 9 10 10 10 10 9 9 9 9 10 10 10 10 10 10 11 11 11 11 11 11 11 11 11 11 11 11 11 11 11 11 11 11
8 8 8 8 9 8 8 7 7 7 8 8 9 9 9 9 9 9 9 9 9 9 9 9 9 9 9 9 10 10 10 10 10 10 11 11 11 11 11 11 11 11 11 11 11 11 10 10 10
7 7 7 8 8 8 7 7 6 6 7 8 8 8 8 8 8 8 8 8 8 8 8 8 8 8 9 9 9 9 9 10 10 10 10 10 10 10 10 10 10 10 10 10 10 10 10 10 10
7 6 6 7 7 7 7 6 5 6 6 7 7 7 7 7 7 8 8 8 8 8 8 8 8 8 8 8 8 9 9 9 9 10 10 10 10 10 10 10 10 10 10 10 10 10 10 10 9
6 6 6 6 6 6 6 5 5 6 6 5 5 6 6 6 7 7 7 7 8 8 8 8 8 8 8 8 8 8 8 8 9 9 9 9 9 9 9 9 9 9 9 10 10 9 9 9 9
5 5 5 6 6 5 5 4 4 5 5 4 5 5 5 5 6 6 6 7 7 7 7 7 7 7 7 7 7 7 7 8 8 8 8 9 9 9 9 9 9 9 9 9 9 9 9 9 9
4 4 5 5 5 4 3 3 3 4 4 4 4 4 4 5 5 5 6 6 6 7 7 7 7 7 7 7 7 7 7 7 7 8 8 8 8 8 8 8 8 8 8 8 8 8 8 8 8
4 4 4 4 4 3 3 3 3 3 3 3 3 3 3 4 4 5 5 5 6 6 6 6 6 6 6 6 6 6 6 6 7 7 7 7 7 8 8 8 8 8 8 8 8 8 8 8 8
4 4 3 3 3 3 2 2 2 2 2 2 2 2 2 3 3 4 4 5 5 5 5 5 6 6 6 6 6 6 6 6 6 6 6 7 7 7 7 7 7 7 8 7 8 7 7 7 7
4 3 3 3 2 2 2 2 2 1 1 2 2 2 2 2 2 3 3 4 4 4 4 5 5 5 5 5 5 5 5 5 5 5 6 6 6 6 6 6 7 7 7 7 7 7 7 7 7
3 3 3 3 2 1 2 1 1 1 1 0 0 0 1 1 1 2 2 3 3 3 4 4 4 4 4 4 4 4 4 4 5 5 5 5 5 5 6 6 6 6 6 7 7 7 7 7 7
2 2 2 2 1 0 0 0 0 -0 -0 -0 -1 -0 -0 0 1 1 2 2 2 2 3 3 3 4 4 4 3 3 4 4 4 4 4 4 4 5 5 5 5 5 5 6 6 6 6 6 6
1 1 1 -0 -0 -0 0 0 0 -1 -1 -1 -1 -1 -1 -0 0 1 1 1 2 2 2 2 3 3 3 3 3 3 3 3 3 3 3 3 4 4 4 4 4 4 5 5 5 5 5 5 5
0 -0 -1 -1 -1 -1 -0 -0 -1 -1 -1 -1 -2 -1 -1 -1 -0 -0 0 1 1 1 1 1 2 2 2 2 2 2 2 3 3 3 3 3 3 3 3 4 4 4 4 4 4 4 4 4 5
-1 -1 -1 -1 -1 -1 -1 -1 -1 -2 -1 -1 -2 -2 -1 -1 -1 -1 -1 -0 0 0 0 1 1 1 1 1 1 1 2 2 2 2 2 3 3 3 3 3 3 3 3 3 4 3 4 4 4
-1 -2 -1 -2 -3 -2 -2 -2 -2 -2 -2 -2 -3 -2 -2 -2 -2 -1 -1 -1 -0 -0 -0 -0 0 0 0 1 1 1 1 1 1 1 2 2 2 2 2 2 3 3 3 3 3 3 3 3 3
-1 -2 -3 -2 -2 -2 -2 -3 -2 -2 -3 -3 -3 -3 -3 -3 -2 -2 -2 -1 -1 -1 -1 -1 -0 -0 -0 -0 -0 -0 -0 0 0 0 1 1 1 1 2 2 2 2 2 2 2 2 2 2 3
-2 -2 -3 -3 -3 -2 -2 -2 -2 -3 -3 -4 -4 -3 -3 -3 -3 -3 -2 -2 -2 -2 -2 -1 -1 -1 -1 -1 -1 -1 -1 -1 -0 -0 -0 0 0 1 1 1 1 1 1 1 1 2 2 2 2
-3 -3 -3 -3 -4 -4 -4 -2 -3 -4 -4 -4 -4 -4 -4 -4 -3 -3 -3 -3 -3 -2 -2 -2 -2 -2 -2 -1 -1 -1 -1 -1 -1 -1 -1 -0 -0 0 0 1 1 1 1 1 1 1 1 1 1
Wind_Speed
9 7 2 4 4 3 3 4 3 2 1 1 2 5 6 4 3 4 1 3 5 6 7 9 9 10 11 12 12 13 13 12 13 13 14 14 14 15 15 14 15 15 15 15 16 16 16 16 17
5 2 4 4 4 3 5 4 4 4 3 2 3 4 5 2 2 4 2 2 6 7 7 8 9 10 11 12 12 13 13 13 13 13 14 14 14 14 14 14 14 15 15 15 15 16 16 16 16
4 2 4 4 4 7 6 4 6 4 1 1 3 3 3 2 2 2 1 4 6 6 7 8 9 9 11 12 12 12 13 13 13 13 13 14 14 14 14 14 14 14 15 15 15 16 15 15 16
3 4 4 2 7 6 6 4 3 1 2 1 3 3 2 3 1 1 3 5 7 6 7 8 9 9 10 11 12 12 13 13 13 13 13 13 13 13 14 13 14 14 14 15 15 15 15 15 16
4 4 2 3 7 4 4 5 2 1 1 1 2 4 1 3 2 4 5 6 7 5 6 8 9 8 9 10 11 12 12 13 13 12 12 13 13 13 13 13 13 13 14 14 15 14 14 15 15
3 3 3 7 8 4 3 4 3 2 2 1 2 3 2 2 3 4 4 5 5 5 6 8 9 9 8 9 10 11 12 12 12 12 12 12 12 12 13 13 13 13 13 14 14 14 14 14 15
4 4 5 6 5 4 4 2 2 3 1 1 2 4 1 1 1 3 5 5 5 5 5 5 7 8 8 8 9 10 11 11 12 12 12 11 12 12 12 12 13 13 13 13 13 13 13 14 14
4 4 3 4 5 5 2 1 2 2 3 1 2 5 3 3 2 4 5 5 5 4 4 4 5 6 7 8 9 10 10 10 11 11 11 11 11 11 11 12 12 12 12 12 13 13 13 14 14
3 2 6 6 6 3 1 1 2 2 1 1 2 1 2 5 5 6 4 4 4 3 3 3 4 5 6 7 8 9 9 9 10 10 10 10 10 10 9 10 12 12 12 12 12 13 13 14 14
3 5 8 3 3 2 1 1 1 1 1 1 3 4 4 7 7 7 5 4 3 2 1 2 3 3 5 6 7 7 7 8 8 8 9 8 9 9 8 10 11 11 11 11 12 12 13 12 11
3 6 3 2 1 1 1 2 1 1 1 2 1 1 4 5 6 6 6 5 4 4 2 2 3 4 4 5 6 6 6 7 7 7 8 8 8 8 8 7 9 9 10 9 10 10 10 10 9
2 2 2 1 1 1 2 1 2 1 3 2 2 4 6 6 6 6 6 4 3 3 2 1 2 4 4 5 5 6 5 5 5 6 7 7 6 6 6 6 7 7 7 8 8 8 9 9 9
4 2 1 0 1 1 2 2 2 3 2 2 3 4 5 5 5 4 4 4 3 3 2 1 2 3 4 5 5 5 4 5 5 6 6 7 6 5 5 5 6 7 7 8 7 7 8 8 8
1 1 2 2 2 2 2 4 3 5 2 2 3 2 3 4 3 2 2 2 3 3 3 2 2 3 4 4 4 4 4 5 6 6 5 7 7 6 5 5 5 6 7 7 7 7 7 7 7
0 2 4 3 2 1 0 5 7 5 1 0 1 1 1 2 2 2 2 4 4 4 3 3 3 4 4 4 4 5 5 5 5 5 6 6 7 7 6 5 4 5 7 8 8 7 7 6 7
1 1 4 4 2 2 2 9 5 2 3 2 1 1 1 2 2 2 2 3 3 3 3 3 3 3 4 4 4 4 5 5 4 5 5 6 6 7 6 5 4 5 7 7 6 5 5 5 5
1 3 5 4 2 1 3 7 4 1 2 2 2 2 2 2 2 2 2 2 2 3 4 3 3 4 3 4 4 4 4 4 4 4 5 5 6 7 7 5 4 6 6 5 5 4 5 6 5
4 4 4 4 2 1 4 7 4 2 1 2 3 2 1 2 3 3 2 1 1 2 3 4 4 3 4 3 3 3 3 3 4 4 4 5 6 7 7 5 5 6 5 4 4 5 4 6 6
3 4 6 5 2 2 5 8 7 4 2 2 2 2 2 3 3 2 3 1 1 1 1 2 4 4 4 3 3 3 2 2 2 3 4 5 5 6 6 5 5 5 4 5 5 5 6 5 5
4 5 5 4 2 2 4 8 7 4 4 3 3 3 3 3 4 4 3 2 0 1 1 2 2 4 4 4 3 3 2 1 2 2 3 4 5 6 6 5 4 4 4 5 5 6 4 4 4
4 5 5 5 4 2 3 6 4 2 2 2 2 2 2 2 2 3 3 3 1 0 1 1 1 2 3 4 3 3 2 2 1 1 1 2 4 5 5 5 5 4 5 6 6 6 5 6 3
4 3 5 5 2 3 1 4 5 3 3 3 4 3 3 3 2 3 3 3 2 2 1 1 1 2 3 4 4 5 4 3 2 2 2 1 3 3 4 5 5 5 4 5 5 5 3 6 5
4 5 4 3 2 3 2 3 6 2 3 5 4 4 4 3 2 2 3 3 3 2 1 1 1 1 2 4 4 5 4 3 2 2 2 2 1 2 4 4 4 4 4 5 5 4 3 4 5
2 3 4 3 2 4 5 4 6 3 4 3 3 3 3 3 3 3 3 3 3 2 1 0 1 1 1 3 4 5 5 4 4 3 3 2 2 1 2 4 4 4 4 4 5 5 4 4 4
4 4 3 4 2 5 2 3 6 4 3 3 3 3 4 3 3 4 4 3 3 3 2 2 0 1 1 2 4 4 5 5 5 5 4 3 2 2 3 3 4 4 4 4 4 4 4 5 5
1 4 4 4 4 4 3 5 5 3 1 1 1 2 3 3 3 4 4 3 2 2 2 2 1 1 1 2 3 4 4 4 3 4 4 4 4 3 3 4 4 4 4 4 4 4 3 4 4
2 2 3 3 1 3 5 5 6 2 2 2 3 4 4 4 4 3 4 4 3 2 1 1 1 1 1 2 2 3 3 3 3 3 3 3 3 3 3 4 4 4 4 5 5 3 4 4 4
2 3 3 3 2 4 5 5 4 4 4 3 3 4 4 5 5 5 4 4 4 3 2 1 1 1 1 2 2 2 3 3 3 2 3 3 3 3 4 4 4 4 4 5 4 3 4 4 4
1 1 2 3 3 4 4 6 4 5 4 3 4 3 3 4 5 4 4 4 4 3 3 2 2 2 2 2 2 2 3 2 2 2 3 3 3 4 4 5 5 5 5 4 4 5 5 5 4
4 4 5 4 4 4 3 7 3 2 2 2 3 4 4 4 4 4 3 4 4 4 4 3 3 3 3 2 2 2 3 2 2 3 3 3 3 4 5 5 5 5 5 5 6 6 6 6 6
Wind_Direction
333 340 45 56 61 59 233 248 234 236 210 211 125 110 119 125 141 158 141 118 116 136 148 148 139 135 132 128 123 119 116 112 109 108 107 107 104 101 100 101 101 101 98 97 95 93 90 89 89
338 4 56 67 115 201 250 244 235 239 207 132 76 86 87 89 72 109 100 138 129 134 137 142 138 135 136 132 129 125 121 117 114 111 110 109 107 105 103 101 104 103 101 99 98 96 94 92 91
337 49 90 99 164 201 213 219 217 240 270 135 85 55 106 135 119 148 179 144 126 126 132 137 132 135 140 137 132 129 127 122 118 115 114 113 111 108 106 103 103 104 102 101 100 98 96 93 92
54 52 62 118 220 222 204 214 194 185 347 15 122 89 59 27 161 181 126 125 124 121 131 137 130 132 138 140 136 133 131 127 123 120 119 117 115 113 110 108 103 104 105 104 102 99 97 95 93
62 85 106 227 237 243 240 252 242 199 262 328 129 141 134 351 37 95 109 119 129 122 126 137 133 130 132 138 140 137 133 130 127 124 123 120 119 116 114 111 110 105 107 107 105 101 98 96 93
69 86 157 224 236 243 257 256 251 257 245 295 125 148 167 357 67 91 99 104 113 123 123 136 138 135 132 133 141 140 135 132 131 127 126 124 121 119 117 116 114 109 108 109 106 103 100 98 95
125 135 196 212 231 245 248 265 229 228 238 268 151 141 169 314 37 97 92 87 91 103 110 121 133 138 138 134 133 140 138 135 134 132 127 124 122 121 120 119 116 114 109 110 108 103 99 97 96
138 135 207 214 214 237 262 301 282 248 245 332 103 145 201 220 146 96 84 78 84 79 85 85 116 129 130 132 133 132 134 136 133 131 127 125 124 122 122 121 119 117 111 111 110 104 101 97 94
114 148 218 212 200 215 239 292 315 358 89 62 59 110 211 136 123 102 84 70 79 82 73 76 87 112 128 130 133 128 130 131 129 126 124 120 116 116 118 122 121 118 112 109 110 104 102 97 93
133 209 226 215 190 187 232 255 268 10 18 41 34 24 85 124 134 132 134 139 139 148 134 85 95 100 124 133 127 122 122 119 115 116 118 117 115 115 119 123 122 117 113 106 109 105 100 93 90
169 207 214 243 259 241 277 306 316 152 260 243 236 180 137 131 139 149 158 162 169 166 156 130 117 119 119 117 121 116 115 111 111 112 113 114 111 111 109 110 111 107 106 97 103 98 95 93 91
191 247 192 238 256 286 275 272 305 254 236 254 176 142 144 149 159 167 171 170 157 149 163 131 126 120 117 121 122 117 116 116 117 119 118 116 110 108 111 108 112 110 110 102 101 100 97 95 95
232 250 292 331 32 311 317 279 248 275 286 22 82 106 141 160 172 178 169 155 141 157 156 149 118 125 120 114 113 113 115 122 123 120 123 124 121 120 119 118 115 114 114 110 104 105 101 98 96
206 231 274 280 297 298 268 274 254 262 286 50 85 131 173 177 176 154 136 155 169 177 165 157 128 119 118 117 117 119 125 126 123 120 120 128 128 127 124 118 117 117 118 119 114 111 108 101 100
272 330 318 279 245 253 345 285 247 250 213 175 131 161 188 190 162 166 192 192 194 186 169 165 145 113 120 123 121 123 129 129 123 128 128 127 130 134 130 126 123 124 123 119 112 104 107 103 99
45 243 264 266 216 222 187 254 268 222 182 231 221 185 236 255 228 218 211 206 194 167 170 171 144 126 124 121 124 123 131 129 127 132 132 129 133 138 132 128 128 131 126 121 122 116 122 113 108
4 241 250 272 217 180 195 253 285 256 174 241 252 231 242 278 298 281 238 211 180 175 175 168 156 151 139 121 115 117 121 122 127 129 130 136 136 141 138 132 132 133 126 121 131 128 135 128 117
234 241 251 257 268 213 233 257 286 287 221 250 267 265 267 279 288 305 295 252 194 173 173 167 159 158 145 130 110 103 106 107 114 121 129 138 143 143 138 134 138 137 132 128 131 135 130 132 129
236 238 255 263 288 258 243 262 278 270 262 270 278 286 276 268 292 337 345 330 71 96 136 166 169 166 156 161 170 165 177 171 124 104 122 137 143 146 140 141 142 141 148 151 141 136 136 127 127
249 253 263 289 316 268 264 273 277 256 241 240 249 272 284 311 334 339 351 359 52 160 173 166 178 176 171 177 182 178 172 168 131 99 105 133 141 149 150 138 150 150 149 149 149 142 146 145 147
257 237 258 273 322 330 314 294 283 301 275 287 285 285 303 300 321 328 332 335 346 331 215 201 188 174 175 167 146 135 111 87 92 150 148 113 138 149 147 148 154 152 154 164 166 160 154 161 169
268 272 269 269 295 281 227 281 282 279 304 312 312 315 309 314 327 334 329 330 316 279 243 192 181 165 170 160 156 157 165 175 199 191 172 116 132 139 142 151 158 153 152 163 172 165 164 161 167
261 302 294 264 216 284 269 231 285 310 280 290 292 298 307 317 326 336 331 312 304 296 266 210 181 168 164 165 162 168 174 176 151 149 145 162 137 141 141 148 153 155 159 159 164 161 160 166 165
304 353 13 33 92 264 235 209 277 251 250 282 308 319 316 323 330 335 344 350 344 353 11 301 178 190 175 170 171 175 174 170 155 155 171 182 187 151 156 159 156 160 164 163 169 168 172 174 162
40 65 15 352 344 253 234 215 251 262 261 230 263 300 310 325 347 355 354 349 347 352 3 14 182 224 202 186 185 188 186 180 177 180 184 186 192 196 192 175 170 174 172 163 164 167 184 178 169
249 135 161 220 249 284 289 236 253 270 278 226 293 328 343 344 348 354 353 349 341 341 352 358 0 310 240 206 209 197 193 189 192 192 191 194 203 206 193 185 177 176 173 170 169 171 191 181 181
149 197 178 152 276 278 272 288 300 284 333 357 354 356 346 335 339 341 348 352 344 335 310 311 342 328 270 233 225 209 195 191 196 202 197 199 202 199 190 187 179 174 177 176 173 184 192 182 189
161 151 107 139 213 259 279 270 261 258 267 297 322 328 333 344 345 342 342 343 342 334 325 332 335 325 300 238 228 221 215 211 204 201 206 209 206 193 187 188 186 178 180 179 175 189 190 182 192
149 156 162 170 186 203 264 268 243 216 217 248 281 307 321 326 325 329 334 335 339 347 352 346 340 336 332 294 252 227 229 219 205 210 219 218 209 196 193 196 192 190 188 185 187 196 183 187 196
197 196 168 186 237 213 230 268 287 214 218 241 297 315 319 318 318 322 326 337 347 348 345 328 321 322 314 303 286 241 235 225 217 225 229 224 218 203 198 196 195 197 196 194 200 197 189 192 199
Height
1513 1514 1515 1517 1521 1530 1530 1523 1517 1514 1513 1513 1512 1512 1514 1517 1521 1526 1523 1522 1523 1525 1526 1528 1530 1532 1533 1534 1535 1536 1537 1538 1539 1539 1540 1541 1542 1542 1543 1544 1544 1545 1545 1546 1546 1546 1547 1547 1548
1512 1514 1517 1517 1525 1534 1529 1520 1516 1513 1511 1511 1512 1512 1514 1516 1518 1519 1519 1521 1523 1524 1526 1528 1530 1531 1533 1534 1535 1536 1537 1538 1539 1539 1540 1541 1542 1543 1543 1544 1545 1545 1546 1546 1547 1547 1548 1549 1549
1512 1513 1516 1518 1525 1527 1522 1516 1513 1511 1510 1511 1512 1513 1515 1517 1517 1518 1519 1520 1522 1524 1525 1527 1529 1531 1532 1533 1534 1536 1537 1538 1539 1539 1540 1541 1542 1543 1544 1544 1545 1546 1547 1547 1548 1548 1549 1549 1550
1512 1514 1515 1521 1521 1517 1514 1511 1510 1510 1511 1511 1512 1514 1516 1517 1518 1518 1519 1520 1522 1523 1525 1526 1528 1530 1532 1533 1534 1535 1536 1537 1538 1539 1540 1541 1542 1543 1544 1545 1546 1547 1547 1548 1549 1549 1550 1550 1551
1510 1512 1518 1523 1518 1514 1512 1510 1510 1510 1511 1511 1512 1513 1515 1517 1517 1517 1518 1520 1521 1522 1524 1526 1527 1529 1531 1532 1533 1534 1535 1537 1538 1539 1540 1541 1542 1543 1544 1545 1546 1547 1548 1548 1549 1550 1551 1551 1552
1510 1512 1522 1521 1516 1513 1511 1510 1510 1510 1511 1511 1512 1513 1514 1516 1516 1517 1518 1519 1521 1522 1524 1525 1526 1528 1529 1531 1532 1534 1535 1536 1537 1539 1540 1541 1542 1543 1544 1545 1546 1547 1548 1549 1550 1550 1551 1552 1553
1510 1514 1517 1517 1515 1513 1510 1510 1510 1510 1510 1511 1512 1512 1513 1515 1516 1516 1518 1519 1521 1522 1523 1524 1525 1526 1528 1529 1531 1533 1534 1535 1537 1538 1539 1540 1541 1543 1544 1545 1546 1547 1548 1549 1550 1551 1552 1553 1553
1507 1512 1514 1514 1513 1511 1509 1509 1509 1509 1509 1511 1511 1512 1512 1513 1514 1515 1517 1518 1519 1521 1522 1523 1524 1525 1526 1528 1530 1531 1533 1534 1535 1537 1538 1540 1541 1542 1543 1545 1546 1547 1548 1549 1550 1551 1552 1553 1554
1506 1513 1512 1510 1510 1509 1508 1509 1509 1509 1509 1509 1510 1511 1511 1512 1513 1514 1515 1517 1518 1519 1521 1522 1523 1524 1525 1527 1528 1530 1531 1533 1534 1535 1537 1538 1540 1541 1543 1544 1545 1547 1548 1549 1550 1551 1552 1553 1554
1505 1511 1506 1506 1506 1507 1507 1508 1508 1509 1508 1509 1509 1509 1510 1510 1511 1511 1513 1514 1515 1517 1519 1520 1521 1522 1523 1525 1526 1528 1530 1531 1533 1534 1536 1537 1539 1540 1542 1543 1545 1546 1547 1548 1550 1551 1552 1554 1555
1503 1505 1504 1505 1505 1506 1507 1508 1508 1508 1509 1509 1508 1508 1508 1508 1509 1509 1511 1512 1513 1515 1517 1518 1519 1521 1522 1523 1524 1526 1528 1529 1531 1533 1534 1536 1537 1539 1540 1542 1543 1545 1546 1547 1549 1551 1552 1554 1555
1503 1503 1504 1504 1505 1506 1506 1507 1507 1507 1508 1508 1508 1507 1506 1506 1506 1507 1509 1510 1511 1513 1514 1516 1517 1518 1520 1521 1522 1524 1525 1527 1529 1531 1532 1534 1536 1537 1539 1540 1542 1544 1545 1546 1548 1550 1551 1553 1554
1503 1503 1504 1504 1505 1505 1505 1506 1507 1507 1507 1507 1506 1506 1505 1505 1505 1506 1507 1508 1509 1511 1512 1514 1515 1516 1517 1519 1520 1521 1523 1525 1527 1528 1530 1532 1534 1535 1537 1538 1540 1542 1544 1545 1547 1549 1550 1552 1554
1502 1503 1504 1504 1504 1504 1505 1505 1506 1504 1506 1505 1504 1504 1504 1504 1504 1504 1505 1505 1506 1508 1509 1511 1512 1514 1515 1516 1518 1519 1521 1523 1524 1526 1528 1529 1531 1533 1535 1536 1538 1540 1542 1544 1546 1547 1549 1551 1553
1502 1504 1504 1503 1503 1504 1505 1505 1503 1503 1504 1503 1503 1502 1502 1503 1503 1502 1503 1503 1504 1505 1506 1508 1510 1511 1512 1514 1515 1517 1519 1520 1521 1523 1525 1526 1529 1531 1533 1534 1536 1538 1540 1541 1543 1546 1548 1550 1551
1503 1506 1506 1503 1503 1503 1507 1504 1501 1502 1502 1501 1501 1501 1501 1501 1501 1501 1501 1501 1502 1503 1504 1505 1506 1508 1509 1511 1513 1514 1516 1517 1519 1520 1522 1524 1526 1528 1530 1532 1534 1536 1537 1539 1541 1543 1545 1547 1549
1507 1508 1505 1504 1502 1503 1505 1503 1501 1500 1500 1499 1499 1499 1499 1499 1499 1499 1499 1499 1499 1500 1501 1502 1503 1505 1507 1508 1510 1512 1513 1515 1517 1518 1519 1521 1523 1525 1527 1529 1531 1533 1535 1537 1538 1540 1543 1545 1547
1508 1508 1505 1504 1502 1503 1504 1502 1500 1499 1498 1498 1497 1497 1497 1496 1496 1496 1496 1496 1496 1497 1498 1499 1501 1503 1504 1505 1507 1509 1511 1512 1514 1515 1517 1518 1520 1522 1524 1526 1528 1530 1532 1533 1535 1538 1540 1543 1545
1506 1505 1505 1504 1502 1504 1503 1501 1499 1498 1497 1496 1495 1495 1495 1494 1495 1494 1493 1492 1493 1494 1495 1496 1498 1499 1501 1502 1503 1505 1506 1508 1510 1512 1514 1516 1517 1519 1521 1523 1525 1527 1529 1530 1532 1535 1537 1539 1542
1504 1505 1506 1504 1503 1503 1503 1501 1497 1496 1495 1494 1494 1493 1493 1492 1492 1491 1490 1490 1490 1490 1491 1492 1493 1495 1497 1499 1500 1502 1503 1505 1507 1509 1511 1512 1514 1516 1517 1519 1521 1523 1525 1527 1529 1532 1533 1536 1539
1503 1505 1505 1505 1504 1503 1504 1501 1497 1495 1494 1493 1493 1492 1491 1490 1490 1489 1488 1488 1488 1488 1488 1489 1490 1492 1494 1496 1498 1499 1501 1502 1503 1505 1507 1509 1510 1512 1514 1516 1518 1520 1522 1523 1525 1528 1530 1532 1535
1504 1503 1502 1503 1506 1508 1506 1506 1497 1496 1494 1493 1492 1491 1489 1489 1488 1487 1487 1486 1486 1486 1486 1487 1488 1489 1490 1492 1494 1495 1496 1497 1498 1501 1503 1505 1507 1509 1511 1512 1514 1516 1518 1520 1522 1525 1527 1530 1531
1505 1503 1502 1502 1506 1510 1508 1510 1500 1497 1495 1493 1491 1490 1488 1488 1487 1486 1485 1485 1484 1484 1484 1485 1485 1486 1487 1489 1490 1492 1493 1494 1496 1498 1500 1502 1503 1505 1507 1509 1511 1512 1514 1516 1518 1520 1523 1526 1528
1505 1505 1505 1507 1510 1513 1508 1510 1501 1499 1494 1492 1491 1489 1487 1486 1485 1484 1484 1483 1483 1482 1482 1482 1483 1483 1484 1485 1487 1488 1489 1491 1492 1494 1496 1498 1500 1501 1503 1505 1507 1509 1511 1512 1515 1517 1519 1522 1525
1507 1512 1518 1518 1519 1512 1506 1506 1501 1495 1492 1491 1490 1488 1486 1485 1484 1482 1481 1481 1480 1480 1480 1480 1480 1481 1482 1483 1484 1485 1486 1487 1488 1490 1492 1493 1495 1497 1499 1501 1503 1505 1507 1508 1511 1514 1515 1518 1521
1511 1513 1520 1522 1520 1513 1507 1505 1498 1493 1490 1489 1489 1487 1486 1484 1483 1481 1480 1479 1479 1478 1478 1477 1478 1478 1479 1480 1480 1482 1483 1484 1485 1487 1488 1490 1491 1493 1495 1497 1499 1501 1503 1505 1508 1510 1512 1515 1517
1511 1514 1514 1521 1523 1522 1510 1504 1497 1491 1490 1489 1488 1486 1484 1483 1482 1481 1479 1478 1478 1477 1477 1476 1475 1476 1476 1477 1478 1479 1479 1480 1481 1483 1484 1486 1488 1490 1492 1493 1495 1497 1499 1501 1504 1505 1508 1511 1513
1510 1512 1518 1521 1521 1517 1510 1507 1498 1491 1490 1488 1487 1485 1483 1482 1481 1480 1479 1478 1477 1476 1475 1474 1474 1473 1473 1474 1475 1475 1476 1477 1478 1479 1480 1482 1484 1486 1488 1489 1491 1494 1496 1497 1499 1501 1504 1507 1509
1512 1514 1515 1519 1520 1518 1514 1502 1490 1488 1487 1487 1486 1485 1483 1482 1481 1479 1478 1477 1476 1475 1474 1473 1472 1471 1471 1471 1471 1472 1473 1474 1475 1476 1477 1478 1480 1482 1484 1485 1487 1489 1491 1493 1495 1497 1499 1502 1504
1510 1511 1514 1517 1519 1519 1516 1503 1487 1487 1486 1486 1485 1484 1483 1482 1480 1478 1477 1475 1474 1473 1471 1470 1470 1469 1468 1468 1468 1469 1470 1470 1471 1472 1473 1474 1476 1477 1479 1481 1483 1485 1487 1489 1491 1493 1495 1497 1499